Weather History for KESN - December, 2013

Change the Weather History Date:

Monday, December 30, 2013

  Actual Average Record
Temperature  
Mean Temperature 41 °F -  
Max Temperature 50 °F 45 °F 64 °F (1971)
Min Temperature 32 °F 30 °F 10 °F (1962)
Degree Days  
Heating Degree Days 24    
Moisture  
Dew Point 36 °F    
Average Humidity 85    
Maximum Humidity 100    
Minimum Humidity 57    
Precipitation  
Precipitation 0.00 in - - ()
Sea Level Pressure  
Sea Level Pressure 30.04 in    
Wind  
Wind Speed 3 mph (North)    
Max Wind Speed 17 mph    
Max Gust Speed -    
Visibility 10 miles    
Events      
Averages and records for this station are not official NWS values.
T = Trace of Precipitation, MM = Missing Value Source: NWS Daily Summary

Daily Weather History Graph

Daily Weather History Graph

Search for Another Location

Airport or City:

Trip Planner

Search our weather history database for the weather conditions in past years. The results will help you decide how hot, cold, wet, or windy it might be!

Date:

Astronomy

Dec. 30, 2013 Rise Set
Actual Time 7:22 AM EST 4:51 PM EST
Civil Twilight 6:52 AM EST 5:21 PM EST
Nautical Twilight 6:19 AM EST 5:54 PM EST
Astronomical Twilight 5:46 AM EST 6:27 PM EST
Moon 5:10 AM EST (12/30) 3:22 PM EST (12/30)
Length of Visible Light 10h 29m
Length of Day
9h 29m
Waning Crescent, 5% of the Moon is Illuminated
Dec 30
Waning Crescent
Jan 1
New
Jan 7
First Quarter
Jan 15
Full
Jan 24
Last Quarter

Hourly Weather History & Observations

Time (EST) Temp. Windchill Dew Point Humidity Pressure Visibility Wind Dir Wind Speed Gust Speed Precip Events Conditions
12:06 AM 44.1 °F 41.5 °F 44.1 °F 100% 29.87 in 10.0 mi SW 4.6 mph - N/A   Clear
12:26 AM 42.4 °F - 42.4 °F 100% 29.87 in 10.0 mi Calm Calm - N/A   Clear
12:46 AM 42.6 °F - 42.6 °F 100% 29.88 in 10.0 mi Calm Calm - N/A   Clear
1:06 AM 40.5 °F - 40.5 °F 100% 29.87 in 10.0 mi Calm Calm - N/A   Clear
1:26 AM 42.1 °F - 42.1 °F 100% 29.87 in 10.0 mi Calm Calm - N/A   Clear
1:46 AM 39.2 °F - 39.2 °F 100% 29.87 in 10.0 mi Calm Calm - N/A   Clear
2:06 AM 38.8 °F - 38.8 °F 100% 29.88 in 3.0 mi Calm Calm - N/A   Clear
2:26 AM 39.4 °F - 39.4 °F 100% 29.89 in 5.0 mi Calm Calm - N/A   Clear
2:46 AM 39.9 °F - 39.9 °F 100% 29.90 in 10.0 mi Calm Calm - N/A   Clear
3:06 AM 39.7 °F - 39.7 °F 100% 29.90 in 7.0 mi Calm Calm - N/A   Clear
3:26 AM 38.1 °F 33.7 °F 38.1 °F 100% 29.91 in 7.0 mi SW 5.8 mph - N/A   Clear
3:46 AM 39.6 °F 37.4 °F 39.6 °F 100% 29.92 in 10.0 mi WSW 3.5 mph - N/A   Clear
4:06 AM 39.9 °F 37.8 °F 39.9 °F 100% 29.93 in 10.0 mi WSW 3.5 mph - N/A   Clear
4:26 AM 40.8 °F - 40.8 °F 100% 29.93 in 10.0 mi Calm Calm - N/A   Mostly Cloudy
4:46 AM 41.0 °F - 41.0 °F 100% 29.94 in 10.0 mi Calm Calm - N/A   Overcast
5:06 AM 42.1 °F - 42.1 °F 100% 29.95 in 10.0 mi Calm Calm - N/A   Overcast
5:21 AM 42.6 °F 40.9 °F 42.6 °F 100% 29.95 in 10.0 mi West 3.5 mph - N/A   Overcast
5:45 AM 42.8 °F 40.1 °F 42.8 °F 100% 29.96 in 7.0 mi SSW 4.6 mph - N/A   Overcast
6:50 AM 44.6 °F 43.1 °F 44.6 °F 100% 29.97 in 10.0 mi SW 3.5 mph - N/A   Overcast
7:45 AM 44.6 °F - 44.6 °F 100% 29.99 in 10.0 mi Calm Calm - N/A   Overcast
8:45 AM 44.6 °F - 44.6 °F 100% 30.01 in 10.0 mi Calm Calm - N/A   Overcast
10:00 AM 48.2 °F - 48.2 °F 100% 30.04 in 10.0 mi Calm Calm - N/A   Mostly Cloudy
10:47 AM 50.0 °F - 41.0 °F 71% 30.06 in 10.0 mi NNW 8.1 mph - N/A   Mostly Cloudy
11:45 AM 50.0 °F - 39.2 °F 66% 30.06 in 10.0 mi North 10.4 mph - N/A   Mostly Cloudy
12:49 PM 48.2 °F - 35.6 °F 62% 30.08 in 10.0 mi North 10.4 mph - N/A   Mostly Cloudy
1:50 PM 44.6 °F 39.7 °F 32.0 °F 61% 30.12 in 10.0 mi North 9.2 mph - N/A   Mostly Cloudy
1:53 PM 46.4 °F 39.5 °F 32.0 °F 57% 30.09 in 10.0 mi North 17.3 mph - N/A   Scattered Clouds
3:46 PM 41.0 °F 34.7 °F 30.2 °F 65% 30.14 in 10.0 mi North 10.4 mph - N/A   Mostly Cloudy
4:49 PM 39.2 °F 33.6 °F 28.4 °F 65% 30.16 in 10.0 mi NNW 8.1 mph - N/A   Mostly Cloudy
5:53 PM 39.2 °F 34.2 °F 28.4 °F 65% 30.16 in 10.0 mi North 6.9 mph - N/A   Mostly Cloudy
6:53 PM 37.4 °F 32.8 °F 28.4 °F 70% 30.17 in 10.0 mi NNE 5.8 mph - N/A   Overcast
7:53 PM 35.6 °F 30.7 °F 28.4 °F 75% 30.19 in 10.0 mi NE 5.8 mph - N/A   Mostly Cloudy
8:53 PM 35.6 °F 31.7 °F 26.6 °F 70% 30.22 in 10.0 mi NNE 4.6 mph - N/A   Mostly Cloudy
9:28 PM 34.7 °F 28.8 °F 25.3 °F 69% 30.23 in 10.0 mi NE 6.9 mph - N/A   Scattered Clouds
9:48 PM 34.2 °F 28.2 °F 24.8 °F 69% 30.22 in 10.0 mi ENE 6.9 mph - N/A   Scattered Clouds
10:08 PM 33.6 °F 29.4 °F 24.3 °F 69% 30.22 in 10.0 mi NE 4.6 mph - N/A   Scattered Clouds
10:28 PM 32.9 °F 27.5 °F 24.4 °F 71% 30.22 in 10.0 mi NE 5.8 mph - N/A   Clear
10:48 PM 32.2 °F 27.7 °F 24.8 °F 74% 30.23 in 10.0 mi NE 4.6 mph - N/A   Scattered Clouds
11:08 PM 33.4 °F 29.1 °F 25.0 °F 71% 30.22 in 10.0 mi NE 4.6 mph - N/A   Mostly Cloudy
11:28 PM 33.3 °F 28.9 °F 24.3 °F 70% 30.23 in 10.0 mi NNE 4.6 mph - N/A   Mostly Cloudy
11:48 PM 32.9 °F 29.8 °F 24.6 °F 72% 30.23 in 10.0 mi ENE 3.5 mph - N/A   Mostly Cloudy